Location: Archemont
(49.1579°N, 1.7598°E)
Time: 09:55:42
(UTC+00:00)

deb Explorer IX - Pass Details

Date: 14 April 2024
Orbit: 513 x 891 km, 38.7° (Epoch: 23 May)

Event Time Altitude Azimuth Distance (km) Brightness Sun altitude
Rises 12:51:25 0° 211° (SSW) 3,510 ? 48.7°
Maximum altitude 12:58:42 17° 154° (SSE) 2,113 ? 48.2°
Drops below altitude 10° 13:02:24 10° 117° (ESE) 2,526 ? 48.0°
Sets 13:05:49 0° 97° (E) 3,415 ? 47.7°
